This is the latest recevied weather packets stored in our database for station/object WK7G. If no packets are shown the sender has not sent any weather packets the latest 10 day(s).
| Time | Temp. | Humidity | Pressure | Rain* | Wind** | Luminosity | Snow |
|---|---|---|---|---|---|---|---|
| 1777925285 | 16.67° C | 41% | 1002.6 hPa | 0 mm | - | 970 W/m² | - |
| 1777924981 | 16.11° C | 40% | 1002.7 hPa | 0 mm | - | 209 W/m² | - |
| 1777924678 | 16.11° C | 41% | 1002.7 hPa | 0 mm | - | 185 W/m² | - |
| 1777924373 | 16.11° C | 43% | 1002.7 hPa | 0 mm | - | 184 W/m² | - |
| 1777924071 | 17.78° C | 36% | 1002.5 hPa | 0 mm | - | 217 W/m² | - |
| 1777923767 | 16.11° C | 41% | 1002.6 hPa | 0 mm | - | 918 W/m² | - |
| 1777923463 | 16.11° C | 43% | 1002.8 hPa | 0 mm | - | 173 W/m² | - |
| 1777923161 | 16.67° C | 35% | 1002.7 hPa | 0 mm | - | 95 W/m² | - |
| 1777922859 | 17.78° C | 36% | 1002.6 hPa | 0 mm | - | 106 W/m² | - |
| 1777922557 | 18.89° C | 33% | 1002.5 hPa | 0 mm | - | 182 W/m² | - |
| 1777922255 | 18.33° C | 36% | 1002.6 hPa | 0 mm | - | 839 W/m² | - |
| 1777921952 | 17.22° C | 38% | 1002.7 hPa | 0 mm | - | 429 W/m² | - |
| 1777921647 | 17.22° C | 36% | 1002.8 hPa | 0 mm | - | 215 W/m² | - |
| 1777921344 | 17.78° C | 35% | 1003.1 hPa | 0 mm | - | 228 W/m² | - |
| 1777921040 | 17.78° C | 35% | 1003 hPa | 0 mm | - | 711 W/m² | - |
| 1777920737 | 18.89° C | 36% | 1003.1 hPa | 0 mm | - | 262 W/m² | - |
| 1777920433 | 17.78° C | 38% | 1003 hPa | 0 mm | - | 1072 W/m² | - |
| 1777920129 | 18.33° C | 35% | 1003.1 hPa | 0 mm | - | 404 W/m² | - |
| 1777919825 | 17.78° C | 39% | 1002.8 hPa | 0 mm | - | 517 W/m² | - |
| 1777919522 | 17.22° C | 37% | 1003.6 hPa | 0 mm | - | 229 W/m² | - |
| 1777919220 | 16.67° C | 37% | 1003.1 hPa | 0 mm | - | 511 W/m² | - |
| 1777918917 | 16.11° C | 39% | 1003.4 hPa | 0 mm | - | 829 W/m² | - |
| 1777918615 | 16.67° C | 37% | 1003.4 hPa | 0 mm | - | 239 W/m² | - |
| 1777918312 | 17.22° C | 35% | 1003.2 hPa | 0 mm | - | 299 W/m² | - |
| 1777918011 | 17.78° C | 36% | 1003.2 hPa | 0 mm | - | 310 W/m² | - |
* Rain latest hour (hover to see other rain measurements)
** Current wind speed in m/s (hover to see current wind gust speed)